SL-19 DEB, 23492

Orbit data source: Space-Track

SL-19 DEB, 23492 is space debris in LEO originally from a launch on Mon, 26 Dec 1994 UTC launched from the Tyuratam Missile And Space Complex (TTMTR). Debris objects in space refer to the collection of defunct objects orbiting the Earth. Examples of debris include non-operational satellites, rocket bodies, and fragments generated from explosions, collisions, or faulty payload assembly.

Loading next visibility...
Identifier
23492, 1994-085Q
Orbit
LEO
Country
Flag of CISCIS
Related business
Manufacturer
Unknown
Mission
Spacecraft
Bus & Motor
Unknown
Mass
Unknown
Launch date (UTC)
1994-12-26 (31 years ago)
Launch vehicle
Unknown
Launch site
Tyuratam Missile And Space Complex (TTMTR)
Object type
Payload
Rocket body
Debris
Shape & HBR
Unknown shape, 0.1 m
Radar Cross Section
Small (<0.1 m²)

Expand to show TLE details & history
Last TLE update: 1 day ago

TLE from 1 day ago
0 SL-19 DEB
1 23492U 94085Q   25308.91400045 -.00000042  00000-0  18373-4 0  9990
2 23492  64.9497 262.3045 0179513 208.2174 189.2268 11.31172084273975
Epoch: 2025-11-04T21:56Z
TLE epoch observation values (Epoch: 2025-11-04T21:56:09.638Z)
Latitude
33.21168°
Longitude
-93.39629°
Altitude
2,156.355 km
Speed
6.777 km/s
True Right ascension
18h 40m 09s
True Declination
33° 04' 48"
Sunlit
Object was in daylight at epoch
Visualization orbit readout
Latitude
Unknown
Longitude
Unknown
Altitude
Unknown
Speed
Unknown
Apparent Right ascension
Unknown
Apparent Declination
Unknown
Sunlit
N/A
Visualization observer readout
Local Sidereal Time
05:43:17
Azimuth
Unknown
Elevation
Unknown
Doppler factor
Unknown
Orbital elements
Apogee altitude
2,153.789 km
Perigee altitude
1,852.872 km
Semi-major axis
8,381.467 km
Eccentricity
0.01795
Inclination
64.9497°
RAAN
262.3045°
Arg. of periapsis
208.2174°
True anomaly
188.90412°
Mean anomaly
189.2268°
Eccentric anomaly
189.06475°
Mean motion
2.82854 °/min
Orbital period
127.27 mins
BSTAR
0.000018373
Loading maneuver chart data...
Computing Atmospheric mass density...
Loading historical data...
Loading historical data...
Loading historical data...
Loading historical data...
Loading historical data...
Loading historical data...
Loading historical data...

Documentation

Showing up to 5 results
|